map of KSH home
KSH - Airport
Location
City:  Kermanshah, Kermanshah, Iran
Name:Shahid Ashrafi Esfahani
ICAO:OICC
IATA:KSH

Details
Type:Airport (Aerodrome, Airfield)
Use:Public/Civil, Military
Latitude:3420'45"N (34.345853)
Longitude:4709'29"E (47.158128)
Datum:WGS 1984
Elevation:4301 ft (1311 m)
Variation:4.75E (WMM2015v2 magnetic declination)
0.06 annual change
Runways:1
Longest:11216 × 148 ft (3419 × 45 m), paved

Time
Time Zone:UTC+3:30 (DST+4:30)
Local Time:

Weather
METAR:OICC 041400Z 35004KT 9999 FEW040 07/M12 Q1024 A3025 NOSIG

Related Locations
Nearby:
Farthest:GMR: 11645 mi / 18741 km
Mangareva [Totegegie], Gambier Islands, PF

Find:

   beyond  
but within

Other Information
Maps:
NOTAMs:
Links:
Sources:

  
  • flag of Iran
  

Sectional Chart

Flight Planning
at skyvector.com

Satellite Image

Google Maps Satellite view

 

Copyright © 2004-2019 Karl L. Swartz. All rights reserved.
The Great Circle Mapper name and logo are trademarks of the Great Circle Mapper.
All other trademarks mentioned herein belong to their respective owners.
Please see credits for attibutions and further copyright information.

  Follow gcmap on Facebook Follow gcmap on Twitter GCmap on LinkedIn

hCard Microformat

Geo Microformat